Miscellaneous Local Product
Issued by NWS North Platte, NE

Home | Current Version | Previous Version | Text Only | Print | Product List | Glossary On
Versions: 1 2 3 4 5 6 7 8 9 10 11 12 13 14 15 16 17 18 19 20 21 22 23 24 25 26 27 28 29 30 31 32 33 34 35 36 37 38 39 40 41 42 43 44 45 46 47 48 49 50
000
AXUS43 KLBF 250710
MISLBF


WESTERN AND NORTH CENTRAL NEBRASKA HOURLY WEATHER ROUNDUP
NATIONAL WEATHER SERVICE NORTH PLATTE NE
200 AM CDT TUE JUL 25 2017

NOTE: "FAIR" INDICATES FEW OR NO CLOUDS BELOW 12,000 FEET WITH NO
SIGNIFICANT WEATHER AND/OR OBSTRUCTIONS TO VISIBILITY.

NOTE: STATIONS NOT REPORTING VARIABLES SUCH AS SKY/WEATHER OR
PRESSURE ARE PROVIDED BY RAWS AND APRS NETWORKS AND ARE NOT UNDER
NATIONAL WEATHER SERVICE QUALITY CONTROL.

...OBSERVATIONS IN AND NEAR THE EASTERN PANHANDLE OF NEBRASKA...

CITY           SKY/WX    TMP DP  RH WIND       PRES   REMARKS
PINE RIDGE     FAIR      75  56  51 SW7       29.90S
GORDON         FAIR      68  57  68 CALM      29.93S
CHADRON        FAIR      79  51  37 SW10      29.87F
ALLIANCE       FAIR      79  54  41 S17       29.94F
SIDNEY         FAIR      76  59  55 S18G26    30.02S
CRESCENT LAKE    N/A     79  58  48 S10G18      N/A
$$

...OBSERVATIONS IN NORTHERN NEBRASKA AND FAR SOUTHERN SOUTH DAKOTA...

CITY           SKY/WX    TMP DP  RH WIND       PRES   REMARKS
WINNER         FAIR      80  69  69 S28G38    29.82F
VALENTINE      FAIR      79  63  57 S9        29.91S
THEDFORD       FAIR      82  56  41 S12       29.94F
AINSWORTH      FAIR      76  69  78 S12       29.92F
O`NEILL        FAIR      77  70  79 S15       29.91F
ORD            FAIR      76  68  76 S8        29.94S
BROKEN BOW     FAIR      76  59  55 S10       29.96F
VALENTINE NWR    N/A     76  63  63 SE6G20      N/A
HALSEY           N/A     81  53  37 S9G18       N/A
BUTTE            N/A     79  68  69 S17G30      N/A
CHAMBERS         N/A     75  69  82 CALM        N/A
EWING            N/A     77  71  81 S8G16       N/A
$$

...OBSERVATIONS IN SOUTHWEST NEBRASKA AND FAR NORTHEAST COLORADO...

CITY           SKY/WX    TMP DP  RH WIND       PRES   REMARKS
HOLYOKE        FAIR      79  61  53 S15       30.00S
IMPERIAL       FAIR      80  56  43 S15G25    29.97F
OGALLALA       FAIR      80  61  52 S9        29.95S
NORTH PLATTE   FAIR      82  55  39 S12       29.96
MCCOOK         FAIR      81  54  39 S15       29.97R
LEXINGTON      FAIR      77  56  48 S10       29.97S
STAPLETON        N/A     77  55  46 S3          N/A
GOTHENBURG       N/A     80  52  37 S7          N/A
CALLAWAY         N/A     73  62  68 S9          N/A
$$

...OBSERVATIONS IN CENTRAL LINCOLN COUNTY AREA...

CITY           SKY/WX    TMP DP  RH WIND       PRES   REMARKS
N.P. AIRPORT   FAIR      82  55  39 S12       29.96
N.P. DOWNTOWN    N/A     81  58  45 CALM        N/A
N.P. HILLCREST   N/A     79  57  46 S9          N/A
$$

...SOME OBSERVATIONS FROM AROUND THE REGION...

CITY           SKY/WX    TMP DP  RH WIND       PRES   REMARKS
DENVER         MOCLDY    74  47  38 S16       30.07R
LIMON          FAIR      64  59  83 SE5       30.12F
ASPEN          MOCLDY    62  50  64 N3        30.33R
LARAMIE        FAIR      60  44  55 SE13      30.21R
CASPER         FAIR      66  38  35 W7        30.02R
CHEYENNE       FAIR      63  43  48 W5        30.12R
SCOTTSBLUFF    FAIR      82  54  37 S15       29.94F
GRAND ISLAND   FAIR      76  72  87 S14       29.97F
OMAHA          FAIR      75  65  70 SE13      29.99S
SIOUX FALLS    FAIR      73  66  78 S15G24    29.94S
PIERRE         FAIR      78  64  61 S8        29.78F
RAPID CITY     FAIR      67  54  63 CALM      29.88F
BISMARCK       FAIR      68  66  93 SE5       29.84R
KANSAS CITY    FAIR      74  67  78 SE9       30.05R
HILL CITY      FAIR      79  58  48 S12       30.00F
WICHITA        FAIR      75  68  78 S6        30.03R
DODGE CITY     FAIR      74  61  63 S9        30.05S
OKLAHOMA CITY  FAIR      75  70  84 S6        30.03R
DALLAS         FAIR      80  75  84 SE6       30.00R
AMARILLO       FAIR      73  65  75 SE10      30.11S
$$




USA.gov is the U.S. government's official web portal to all federal, state and local government web resources and services.